RYR9693 LATI-LIBD

Flight info

Callsign RYR9693
Flight time 0h 29m
Altitude 28000
Route DIRES DCT PAPIZ DCT ENOXA
Aircraft B738/M-SDE2E3FGHIRWXY/LB1

Departure

Time 2026-04-27 11:27
Airport Tirana International Airport Mother Teresa (LATI)

Arrival

Time 2026-04-27 11:57
Airport Bari Karol Wojtyła International Airport (LIBD)
Time Latitude Longitude Altitude Speed Heading
2026-04-27 10:59 41.42419 19.71461 119 ft 0 kts 263°
2026-04-27 11:21 41.42420 19.71472 119 ft 2 kts 263°
2026-04-27 11:22 41.42422 19.71494 127 ft 2 kts 263°
2026-04-27 11:22 41.42424 19.71515 124 ft 2 kts 272°
2026-04-27 11:22 41.42424 19.71517 121 ft 0 kts 274°
2026-04-27 11:24 41.42424 19.71516 121 ft 0 kts 274°
2026-04-27 11:24 41.42428 19.71503 125 ft 2 kts 303°
2026-04-27 11:24 41.42451 19.71498 124 ft 7 kts
2026-04-27 11:24 41.42515 19.71506 118 ft 10 kts 354°
2026-04-27 11:25 41.42583 19.71495 116 ft 10 kts 354°
2026-04-27 11:25 41.42645 19.71489 117 ft 8 kts 12°
2026-04-27 11:25 41.42673 19.71567 116 ft 14 kts 81°
2026-04-27 11:25 41.42686 19.71709 115 ft 14 kts 85°
2026-04-27 11:26 41.42692 19.71833 118 ft 12 kts 95°
2026-04-27 11:26 41.42639 19.71904 117 ft 12 kts 171°
2026-04-27 11:26 41.42476 19.71926 115 ft 54 kts 174°
2026-04-27 11:26 41.41826 19.72008 118 ft 131 kts 175°
2026-04-27 11:27 41.40703 19.72158 213 ft 186 kts 175°
2026-04-27 11:27 41.39374 19.72328 1002 ft 199 kts 175°
2026-04-27 11:27 41.37979 19.72485 1984 ft 202 kts 178°
2026-04-27 11:27 41.36554 19.72618 2751 ft 214 kts 174°
2026-04-27 11:28 41.34977 19.72863 3102 ft 241 kts 173°
2026-04-27 11:28 41.33268 19.73117 3813 ft 249 kts 175°
2026-04-27 11:28 41.31527 19.73067 4567 ft 260 kts 197°
2026-04-27 11:28 41.30011 19.71740 5156 ft 272 kts 234°
2026-04-27 11:29 41.29010 19.69587 6133 ft 274 kts 241°
2026-04-27 11:29 41.28048 19.67340 7023 ft 280 kts 241°
2026-04-27 11:29 41.27078 19.65111 8022 ft 282 kts 241°
2026-04-27 11:29 41.26079 19.62847 8927 ft 287 kts 240°
2026-04-27 11:30 41.25043 19.60540 9863 ft 291 kts 240°
2026-04-27 11:30 41.23990 19.58228 10560 ft 303 kts 239°
2026-04-27 11:30 41.22836 19.55712 10778 ft 330 kts 239°
2026-04-27 11:30 41.21617 19.53075 11337 ft 342 kts 239°
2026-04-27 11:31 41.20352 19.50344 12185 ft 346 kts 239°
2026-04-27 11:31 41.19082 19.47612 13085 ft 348 kts 239°
2026-04-27 11:31 41.17813 19.44896 13889 ft 352 kts 239°
2026-04-27 11:31 41.16505 19.42100 14635 ft 356 kts 239°
2026-04-27 11:32 41.15205 19.39322 15397 ft 359 kts 239°
2026-04-27 11:32 41.13879 19.36493 16135 ft 362 kts 239°
2026-04-27 11:32 41.12532 19.33620 16869 ft 366 kts 239°
2026-04-27 11:32 41.11191 19.30762 17595 ft 370 kts 239°
2026-04-27 11:33 41.09993 19.27736 18314 ft 372 kts 252°
2026-04-27 11:33 41.09450 19.24385 19002 ft 372 kts 266°
2026-04-27 11:33 41.09467 19.20973 19661 ft 373 kts 275°
2026-04-27 11:33 41.09686 19.17526 20290 ft 376 kts 276°
2026-04-27 11:34 41.09931 19.14080 20886 ft 379 kts 276°
2026-04-27 11:34 41.10183 19.10570 21510 ft 382 kts 276°
2026-04-27 11:34 41.10430 19.07043 22157 ft 384 kts 276°
2026-04-27 11:34 41.10666 19.03564 22969 ft 380 kts 276°
2026-04-27 11:35 41.10895 19.00089 23845 ft 375 kts 276°
2026-04-27 11:35 41.11117 18.96644 24243 ft 381 kts 276°
2026-04-27 11:35 41.11343 18.93099 24141 ft 382 kts 275°
2026-04-27 11:35 41.11560 18.89645 24116 ft 374 kts 275°
2026-04-27 11:36 41.11774 18.86221 24132 ft 371 kts 275°
2026-04-27 11:36 41.11987 18.82782 24135 ft 375 kts 275°
2026-04-27 11:36 41.12199 18.79349 24128 ft 377 kts 275°
2026-04-27 11:36 41.12412 18.75877 24124 ft 376 kts 275°
2026-04-27 11:37 41.12622 18.72442 24120 ft 375 kts 275°
2026-04-27 11:37 41.12832 18.68979 24128 ft 375 kts 275°
2026-04-27 11:37 41.13039 18.65558 24121 ft 374 kts 275°
2026-04-27 11:37 41.13247 18.62100 24121 ft 374 kts 275°
2026-04-27 11:38 41.13454 18.58633 24125 ft 375 kts 275°
2026-04-27 11:38 41.13656 18.55238 24103 ft 369 kts 275°
2026-04-27 11:38 41.13852 18.51927 24000 ft 351 kts 275°
2026-04-27 11:38 41.14040 18.48726 23926 ft 340 kts 275°
2026-04-27 11:39 41.14219 18.45674 23773 ft 332 kts 275°
2026-04-27 11:39 41.14397 18.42618 23402 ft 330 kts 275°
2026-04-27 11:39 41.14573 18.39604 22948 ft 330 kts 275°
2026-04-27 11:39 41.14750 18.36558 22522 ft 329 kts 275°
2026-04-27 11:40 41.14923 18.33554 22070 ft 323 kts 275°
2026-04-27 11:40 41.15092 18.30609 21447 ft 323 kts 275°
2026-04-27 11:40 41.15264 18.27618 20816 ft 323 kts 275°
2026-04-27 11:40 41.15433 18.24639 20253 ft 321 kts 275°
2026-04-27 11:41 41.15598 18.21723 19728 ft 319 kts 275°
2026-04-27 11:41 41.15764 18.18774 19195 ft 317 kts 275°
2026-04-27 11:41 41.15927 18.15880 18669 ft 316 kts 275°
2026-04-27 11:41 41.16088 18.12986 18116 ft 315 kts 275°
2026-04-27 11:42 41.16249 18.10090 17556 ft 312 kts 275°
2026-04-27 11:42 41.16407 18.07245 17029 ft 310 kts 275°
2026-04-27 11:42 41.16564 18.04381 16495 ft 307 kts 275°
2026-04-27 11:42 41.16719 18.01553 15969 ft 305 kts 275°
2026-04-27 11:43 41.16871 17.98779 15455 ft 304 kts 275°
2026-04-27 11:43 41.17023 17.95983 14955 ft 302 kts 275°
2026-04-27 11:43 41.17173 17.93203 14468 ft 300 kts 275°
2026-04-27 11:43 41.17322 17.90447 13983 ft 298 kts 275°
2026-04-27 11:44 41.17467 17.87737 13471 ft 298 kts 275°
2026-04-27 11:44 41.17615 17.84976 13114 ft 298 kts 275°
2026-04-27 11:44 41.17758 17.82275 12845 ft 294 kts 275°
2026-04-27 11:44 41.17901 17.79565 12530 ft 293 kts 275°
2026-04-27 11:45 41.18044 17.76863 12193 ft 292 kts 275°
2026-04-27 11:45 41.18137 17.75078 11978 ft 292 kts 275°
2026-04-27 11:45 41.18324 17.71516 11549 ft 291 kts 275°
2026-04-27 11:45 41.18463 17.68830 11222 ft 290 kts 275°
2026-04-27 11:46 41.18602 17.66148 10930 ft 289 kts 275°
2026-04-27 11:46 41.18739 17.63488 10676 ft 286 kts 274°
2026-04-27 11:46 41.18872 17.60887 10437 ft 283 kts 274°
2026-04-27 11:46 41.19006 17.58281 10158 ft 282 kts 274°
2026-04-27 11:47 41.19094 17.56550 9956 ft 282 kts 274°
2026-04-27 11:47 41.19268 17.53106 9551 ft 280 kts 274°
2026-04-27 11:47 41.19398 17.50523 9237 ft 279 kts 274°
2026-04-27 11:47 41.19527 17.47953 8959 ft 278 kts 274°
2026-04-27 11:48 41.19653 17.45427 8673 ft 277 kts 274°
2026-04-27 11:48 41.19780 17.42874 8387 ft 275 kts 274°
2026-04-27 11:48 41.19906 17.40331 8100 ft 274 kts 274°
2026-04-27 11:48 41.20029 17.37834 7824 ft 273 kts 274°
2026-04-27 11:49 41.20152 17.35321 7559 ft 271 kts 274°
2026-04-27 11:49 41.20275 17.32814 7290 ft 270 kts 274°
2026-04-27 11:49 41.20396 17.30324 7028 ft 268 kts 274°
2026-04-27 11:49 41.20514 17.27880 6767 ft 267 kts 274°
2026-04-27 11:50 41.20633 17.25420 6502 ft 266 kts 273°
2026-04-27 11:50 41.20749 17.22990 6243 ft 264 kts 273°
2026-04-27 11:50 41.20827 17.21353 6063 ft 263 kts 273°
2026-04-27 11:50 41.20980 17.18145 5724 ft 260 kts 273°
2026-04-27 11:51 41.21093 17.15782 5510 ft 256 kts 273°
2026-04-27 11:51 41.21167 17.14202 5471 ft 250 kts 273°
2026-04-27 11:51 41.21377 17.09733 5247 ft 235 kts 273°
2026-04-27 11:52 41.21474 17.07622 5141 ft 227 kts 272°
2026-04-27 11:52 41.21358 17.05575 4968 ft 218 kts 259°
2026-04-27 11:52 41.21046 17.03630 4634 ft 217 kts 258°
2026-04-27 11:52 41.20720 17.01672 4279 ft 216 kts 258°
2026-04-27 11:53 41.20405 16.99719 3961 ft 214 kts 259°
2026-04-27 11:53 41.20053 16.97878 3869 ft 199 kts 251°
2026-04-27 11:53 41.19577 16.96196 3612 ft 192 kts 250°
2026-04-27 11:53 41.19097 16.94553 3229 ft 192 kts 250°
2026-04-27 11:54 41.18617 16.92887 2851 ft 192 kts 250°
2026-04-27 11:54 41.18147 16.91241 2479 ft 193 kts 251°
2026-04-27 11:54 41.17669 16.89558 2115 ft 196 kts 251°
2026-04-27 11:54 41.17184 16.87849 1798 ft 198 kts 251°
2026-04-27 11:55 41.16705 16.86157 1517 ft 197 kts 251°
2026-04-27 11:55 41.16228 16.84470 1258 ft 190 kts 251°
2026-04-27 11:55 41.15776 16.82870 1003 ft 182 kts 250°
2026-04-27 11:55 41.15334 16.81309 784 ft 178 kts 251°
2026-04-27 11:56 41.14911 16.79809 633 ft 164 kts 251°
2026-04-27 11:56 41.14528 16.78424 393 ft 156 kts 250°
2026-04-27 11:56 41.14143 16.77089 139 ft 153 kts 251°
2026-04-27 11:56 41.13828 16.75986 156 ft 70 kts 248°
2026-04-27 11:57 41.13736 16.75743 164 ft 21 kts 219°
2026-04-27 11:57 41.13617 16.75644 165 ft 20 kts 192°
2026-04-27 11:57 41.13579 16.75756 164 ft 16 kts 71°
2026-04-27 11:57 41.13618 16.75891 161 ft 16 kts 69°
2026-04-27 11:58 41.13622 16.76039 154 ft 12 kts 128°
2026-04-27 11:58 41.13561 16.76114 154 ft 11 kts 127°
2026-04-27 11:58 41.13521 16.76160 154 ft 8 kts 156°
2026-04-27 11:58 41.13488 16.76178 153 ft 4 kts 160°
2026-04-27 11:59 41.13480 16.76182 153 ft 0 kts 159°